TimeCDT,TemperatureF,Dew PointF,Humidity,Sea Level PressureIn,VisibilityMPH,Wind Direction,Wind SpeedMPH,Gust SpeedMPH,PrecipitationIn,Events,Conditions,WindDirDegrees,DateUTC
12:53 AM,78.1,52.0,40,29.94,10.0,East,9.2,-,N/A,,Clear,90,2012-08-18 05:53:00
1:53 AM,75.9,52.0,43,29.93,10.0,ESE,6.9,-,N/A,,Clear,120,2012-08-18 06:53:00
2:53 AM,75.9,51.1,42,29.91,10.0,East,9.2,-,N/A,,Clear,100,2012-08-18 07:53:00
3:53 AM,75.0,51.1,43,29.91,10.0,ESE,9.2,-,N/A,,Clear,110,2012-08-18 08:53:00
5:53 AM,73.9,51.1,45,29.89,10.0,ESE,10.4,-,N/A,,Mostly Cloudy,110,2012-08-18 10:53:00
7:53 AM,73.0,52.0,48,29.88,10.0,ESE,10.4,-,N/A,,Mostly Cloudy,120,2012-08-18 12:53:00
8:53 AM,75.0,54.0,48,29.88,10.0,ESE,11.5,-,N/A,,Scattered Clouds,110,2012-08-18 13:53:00
9:48 AM,78.8,57.2,47,29.95,10.0,ESE,9.2,-,N/A,Thunderstorm,Partly Cloudy,110,2012-08-18 14:48:00
9:53 AM,77.0,59.0,54,29.90,10.0,NE,9.2,-,0.00,Rain-Thunderstorm,Light Rain,40,2012-08-18 14:53:00
10:06 AM,69.8,60.8,73,29.99,1.8,NE,8.1,-,0.11,Rain-Thunderstorm,Heavy Thunderstorms and Rain,50,2012-08-18 15:06:00
10:19 AM,66.2,64.4,94,29.98,-9999.0,ENE,11.5,-,0.43,Rain-Thunderstorm,Heavy Thunderstorms and Rain,70,2012-08-18 15:19:00
10:53 AM,70.0,64.0,81,29.94,10.0,East,10.4,-,0.44,Thunderstorm,Thunderstorm,90,2012-08-18 15:53:00
11:41 AM,73.4,64.4,73,29.99,10.0,East,15.0,26.5,N/A,,Clear,80,2012-08-18 16:41:00
11:53 AM,75.0,63.0,66,29.92,10.0,East,16.1,-,N/A,,Clear,80,2012-08-18 16:53:00
12:53 PM,77.0,62.1,60,29.95,10.0,NE,20.7,24.2,N/A,,Mostly Cloudy,50,2012-08-18 17:53:00
1:01 PM,75.2,64.4,69,30.02,10.0,NE,21.9,27.6,0.00,Rain-Thunderstorm,Light Rain,40,2012-08-18 18:01:00
1:21 PM,73.4,62.6,69,30.01,10.0,NE,19.6,28.8,0.00,,Mostly Cloudy,50,2012-08-18 18:21:00
1:53 PM,75.0,64.0,69,29.94,10.0,ENE,19.6,-,0.00,,Scattered Clouds,70,2012-08-18 18:53:00
2:53 PM,77.0,62.1,60,29.90,10.0,ENE,18.4,-,N/A,,Partly Cloudy,70,2012-08-18 19:53:00
3:53 PM,79.0,61.0,54,29.85,10.0,ESE,18.4,-,N/A,,Clear,110,2012-08-18 20:53:00
4:53 PM,78.1,62.1,58,29.84,10.0,ESE,13.8,-,N/A,,Clear,110,2012-08-18 21:53:00
5:53 PM,78.1,61.0,56,29.85,10.0,East,11.5,-,N/A,,Mostly Cloudy,90,2012-08-18 22:53:00
6:53 PM,77.0,61.0,58,29.86,10.0,ENE,9.2,-,N/A,,Clear,70,2012-08-18 23:53:00
7:53 PM,75.0,61.0,62,29.88,10.0,East,6.9,-,N/A,,Clear,100,2012-08-19 00:53:00
8:53 PM,71.1,62.1,73,29.92,10.0,ESE,9.2,-,N/A,,Clear,120,2012-08-19 01:53:00
9:53 PM,69.1,62.1,78,29.93,10.0,SSE,6.9,-,N/A,,Clear,150,2012-08-19 02:53:00
10:53 PM,68.0,62.1,81,29.94,10.0,SSE,8.1,-,N/A,,Clear,160,2012-08-19 03:53:00
11:53 PM,66.0,62.1,87,29.94,10.0,SSW,4.6,-,N/A,,Clear,210,2012-08-19 04:53:00